Погода в Садовом

Россия / Воронежская область     51°32′06″N   40°29′40″E
темп.,
°C
ветер,
м/с
пор.,
м/с
влажн.,
%
обл.,
%
осадки,
мм/ч
давл.,
гПа
погр.,
м
21 июня, пн
пн2100:00+18в4108082 0.0 1020152
03:00+17в41079100 0.0 1020174
06:00+19вюв4117777 0.0 1020246
09:00+24вюв566291 0.0 1020384
12:00+28вюв455014 0.0 1020717
15:00+29вюв46495 0.0 10201019
18:00+28вюв36635 0.0 1019254
21:00+22в46754 0.0 102089
22 июня, вт
вт2200:00+20в49771 0.0 1020147
03:00+19в49770 0.0 1020136
06:00+20в49800 0.0 1020193
09:00+26в576496 0.0 1020396
12:00+29в5652100 0.0 1020886
15:00+31в564737 0.0 10191441
18:00+28всв4864100 0.0 1019283
21:00+23всв467296 0.0 101993
23 июня, ср
ср2300:00+21в477612 0.0 1020112
03:00+20всв487810 0.0 1019132
06:00+21всв410785 0.0 1019200
09:00+27в575857 0.0 1019444
12:00+30в564757 0.0 1019824
15:00+32в4543100 0.0 10181265
18:00+30в2462100 0.0 1018145
21:00+26в367098 0.0 1019113
24 июня, чт
чт2400:00+23в346977 0.0 101959
03:00+22всв47695 0.0 101996
06:00+22всв37805 0.0 1019164
09:00+28в45605 0.0 1019472
12:00+31всв34485 0.0 10181351
15:00+31всв34426 0.0 10182110
18:00+30в235583 0.0 1016205
21:00+25св456296 0.0 101783
25 июня, пт
пт2500:00+20в228125 0.0 101731
03:00+19св337918 0.0 101735
06:00+20св36775 0.0 1017181
09:00+25св34585 0.0 1016397
12:00+29св345036 0.0 1016873
15:00+30св455021 0.0 10151360
18:00+28св366385 0.0 1015394
21:00+23всв22765 0.0 101312